Hourly Data Report for October 07, 2015

All times are specified in Local Standard Time (LST). Add 1 hour to adjust for Daylight Saving Time where and when it is observed.

PANGNIRTUNG
NUNAVUT

66°08'36.300" N
65°42'40.500" W
22.60 m
2403049
71826
WXP

Download Data

Hourly Data (October 2015)
Hourly Data Report for October 7, 2015
Temp Definition
°C
Dew Point Temp Definition
°C
Rel Hum Definition
%
Wind Dir Definition
10's deg

Wind Spd Definition
km/h
Visibility Definition
km
Stn Press Definition
kPa
Hmdx Definition


Wind Chill Definition


Weather Definition


TIME
00:00 -7.9 -10.4 83 12 3   100.37   -9 LegendNANA
01:00 -8.4 -10.9 82 21 3   100.33   -10 LegendNANA
02:00 -9.7 -12.5 80 12 12   100.29   -16 LegendNANA
03:00 -9.4 -12.3 79 9 7   100.27   -13 LegendNANA
04:00 -8.1 -11.4 77 14 9   100.24   -13 LegendNANA
05:00 -8.7 -11.9 78 12 10   100.19   -14 LegendNANA
06:00 -8.0 -12.6 69 13 3   100.14   -10 LegendNANA
07:00 -8.3 -13.0 69 9 2   100.14   -9 LegendNANA
08:00 -7.4 -12.0 70 10 4   100.11   -9 LegendNANA
09:00 -8.5 -12.6 72 22 3   100.07   -10 LegendNANA
10:00 -8.6 -13.3 69 23 3   100.06   -10 LegendNANA
11:00 -7.9 -12.9 67   0   100.04     LegendNANA
12:00 -7.5 -11.9 70 18 2   100.00   -9 LegendNANA
13:00 -7.5 -12.3 69 19 2   100.00   -9 LegendNANA
14:00 -7.2 -12.1 68 22 2   99.98   -8 LegendNANA
15:00 -6.8 -11.8 67 10 8   99.96   -11 LegendNANA
16:00 -6.6 -11.0 71 12 9   99.97   -11 LegendNANA
17:00 -6.1 -10.5 71 12 9   99.96   -10 LegendNANA
18:00 -6.3 -10.0 75 11 20   99.95   -13 LegendNANA
19:00 -6.5 -10.3 75 14 14   99.95   -12 LegendNANA
20:00 -5.4 -9.7 72 11 8   99.94   -9 LegendNANA
21:00 -5.8 -9.5 75 19 3   99.93   -7 LegendNANA
22:00 -5.9 -9.8 74 35 7   99.89   -9 LegendNANA
23:00 -5.6 -9.7 73 14 2   99.90   -7 LegendNANA

Notes on Data Quality.

Legend

  • E = Estimated
  • M = Missing
  • NA = Not Available
  • ‡ = Partner data that is not subject to review by the National Climate Archives
Date modified: